Showing default

AEROCUBE 8D, 41852

Orbit data source: Space-Track

AEROCUBE 8D, 41852 is a payload satellite owned by AERO (US) in SSO that was launched on Fri, 11 Nov 2016 UTC via an ATLAS V 401 launch vehicle from the Air Force Western Test Range (AFWTR). Payload-class satellites include a variety of spacecraft equipped with specific instruments for various scientific and technological missions. These include communications satellites like Starlink; space stations such as the ISS; scientific satellites like the Hubble; Earth observation satellites from companies like Planet Labs, Umbra, and HawkEye 360; GPS; miniature CubeSats for education and research; and military/defense satellites.

Loading next visibility...
Identifier
41852, 2016-067E
Orbit
SSO
Country
Flag of USUS
Related business
Manufacturer
AERO
Mission
Operational Defense Technology
Bus & Motor
CUBESAT 1.5U, Unknown motor
Mass
2 kg wet, 2 kg dry
Launch date (UTC)
2016-11-11 (9 years ago)
Launch vehicle
ATLAS V 401
Launch site
Air Force Western Test Range (AFWTR)
Object type
Payload
Rocket body
Debris
Shape & HBR
Box, 0.1 m
Radar Cross Section
0.025 m², Small (<0.1 m²)

Expand to show TLE details & history
Last TLE update: 15 hours ago

TLE from 15 hours ago
0 AEROCUBE 8D
1 41852U 16067E   26033.50100194  .00009093  00000-0  39951-3 0  9995
2 41852  98.0865 253.4735 0002376 230.7237 129.3787 15.22171568505565
Epoch: 2026-02-02T12:01Z
TLE epoch observation values (Epoch: 2026-02-02T12:01:26.567Z)
Latitude
-0.00001°
Longitude
-59.58258°
Altitude
503.402 km
Speed
7.612 km/s
True Right ascension
16h 53m 53s
True Declination
0° 00' 00"
Sunlit
Object was in daylight at epoch
Visualization orbit readout
Latitude
Unknown
Longitude
Unknown
Altitude
Unknown
Speed
Unknown
Apparent Right ascension
Unknown
Apparent Declination
Unknown
Sunlit
N/A
Visualization observer readout
Local Sidereal Time
05:02:27
Azimuth
Unknown
Elevation
Unknown
Doppler factor
Unknown
Orbital elements
Apogee altitude
497.919 km
Perigee altitude
494.652 km
Semi-major axis
6,874.422 km
Eccentricity
0.00024
Inclination
98.0865°
RAAN
253.4735°
Arg. of periapsis
230.7237°
True anomaly
129.39974°
Mean anomaly
129.3787°
Eccentric anomaly
129.38922°
Mean motion
3.80793 °/min
Orbital period
94.54 mins
BSTAR
0.00039951
Loading maneuver chart data...
Computing Atmospheric mass density...
Loading historical data...
Loading historical data...
Loading historical data...
Loading historical data...
Loading historical data...
Loading historical data...
Loading historical data...

Documentation

Showing up to 5 results
|